Current Weather Conditions by Major Hwy


I-84 West to East [Columbia River Gorge] 1200 AM PDT THU AUG 22 2019 ELEVA CITY SKY/WX TMP DP RH WIND PRES REMARKS 10 ASTORIA, OR CLOUDY 55 53 93 CALM 30.06S 20 KELSO CLEAR 58 53 84 W3 30.05R 40 PORTLAND, OR CLOUDY 62 55 77 NW9 30.03R 30 TROUTDALE, OR CLOUDY 62 56 80 CALM 30.02S 240 THE DALLES, OR CLEAR 65 59 81 W5 29.93F 620 HERMISTON, OR CLEAR 65 59 81 S9 29.90F 1,480 PENDLETON, OR CLOUDY 64 59 83 S6 29.94F 2,710 LA GRANDE CLOUDY 62 55 77 NE5 30.01S 3,370 BAKER CITY CLOUDY 62 53 72 VRB5 29.98F 2,190 ONTARIO CLOUDY 75 48 38 NW8 29.88F
I-90 West to East 1200 AM PDT THU AUG 22 2019 ELEVA CITY SKY/WX TMP DP RH WIND PRES REMARKS 30 SEATAC AIRPORT CLOUDY 60 56 86 NE7 30.01S 1,730 ELLENSBURG PTCLDY 64 54 69 NW20 29.91F 1,200 MOSES LAKE CLEAR 64 59 83 SE7 29.85S 1,880 SPOKANE GEIGER LGT RAIN 65 56 72 S8 29.91S
I-82 North West to South East 1200 AM PDT THU AUG 22 2019 ELEVA CITY SKY/WX TMP DP RH WIND PRES REMARKS 1,730 ELLENSBURG PTCLDY 64 54 69 NW20 29.91F 1,050 YAKIMA TC FAIR 64 53 67 W5 29.90R 720 360 PASCO CLEAR 68 60 75 S8 29.89S 620 HERMISTON, OR CLEAR 65 59 81 S9 29.90F
Hwy97 North to South 1200 AM PDT THU AUG 22 2019 ELEVA CITY SKY/WX TMP DP RH WIND PRES REMARKS 850 OMAK PTCLDY 64 58 80 NW6 29.86S 630 WENATCHEE PTCLDY 68 52 56 NW14 29.85F 1,730 ELLENSBURG PTCLDY 64 54 69 NW20 29.91F 1,050 YAKIMA TC FAIR 64 53 67 W5 29.90R 1,640 GOLDENDALE* CLEAR 65 59 81 W5 29.93F *From Dallesport Airport Elev 240 3,080 REDMOND CLOUDY 57 54 89 SE3 30.04F 4,100 KLAMATH FALLS CLOUDY 58 54 86 NE3 30.09F
I-5 North to South 1200 AM PDT THU AUG 22 2019 ELEVA CITY SKY/WX TMP DP RH WIND PRES REMARKS 150 BELLINGHAM CLOUDY 59 53 80 SW3 29.99S 100 ARLINGTON MOCLDY 56 52 86 N3 30.02S 610 EVERETT CLOUDY 57 51 80 N7 30.02R 30 SEATAC AIRPORT CLOUDY 60 56 86 NE7 30.01S 200 OLYMPIA PTCLDY 56 52 86 SW7 30.01S 20 KELSO CLEAR 58 53 84 W3 30.05R 100 VANCOUVER CLOUDY 61 55 81 VRB5 30.03R 40 PORTLAND CLOUDY 62 55 77 NW9 30.03R 200 SALEM CLOUDY 61 57 87 NW8 30.02R 360 EUGENE CLOUDY 65 62 90 W5 30.03S 510 ROSEBURG CLOUDY 65 63 93 CALM 30.04S FOG 1,300 MEDFORD CLOUDY 62 59 90 NW3 30.05S
Data from:
http://www.wrh.noaa.gov/sew/get.php?pil=RWR&sid=OR&version=0&format=printer
http://www.wrh.noaa.gov/sew/get.php?pil=RWR&sid=WA&version=0&format=printer

Current Observations

Washington State Current Weather Observations   …  Oregon State Current Weather Observation



48 Hour Forecast

Seattle  …  Vancouver  …  Portland
————————————————————————————————————————
Bend  …  Spokane  …  Richland  …  Pendleton  …  Blue Mountains I-84  …  Yakima
————————————————————————————————————————
Goldendale, Washington Higher Elevations  …  Dallesport Airport - Goldendale  …  Bingen - White Salmon - Hood River  …  Index


Top of Page